Hillsboro, OR

8:58 AM PST on December 06, 2016 (GMT -0800)
Portland-Hillsboro

Weather History for KHIO - July, 2013

Change the Weather History Date:

Monday, July 15, 2013

  Actual Average Record
Temperature  
Mean Temperature 68 °F 66 °F  
Max Temperature 87 °F 80 °F 104 °F (1941)
Min Temperature 48 °F 51 °F 41 °F (1943)
Degree Days  
Heating Degree Days 0 2  
Month to date heating degree days 18 35  
Since 1 July heating degree days 18 35  
Cooling Degree Days 3 2  
Month to date cooling degree days 40 27  
Year to date cooling degree days 85 53  
Growing Degree Days 17 (Base 50)    
Moisture  
Dew Point 47 °F    
Average Humidity 57    
Maximum Humidity 86    
Minimum Humidity 27    
Precipitation  
Precipitation 0.00 in 0.01 in 0.88 in (1978)
Month to date precipitation 0.00 0.37  
Year to date precipitation 12.77 21.26  
Snow  
Snow 0.00 in - - ()
Month to date snowfall 0.0  
Since 1 June snowfall 0.0  
Since 1 July snowfall 0.0  
Snow Depth 0.00 in    
Sea Level Pressure  
Sea Level Pressure 29.92 in    
Wind  
Wind Speed 6 mph (NNW)    
Max Wind Speed 15 mph    
Max Gust Speed 20 mph    
Visibility 10 miles    
Events      
T = Trace of Precipitation, MM = Missing Value Source: NWS Daily Summary

Daily Weather History Graph

Daily Weather History Graph

Search for Another Location

Airport or City:

Trip Planner

Search our weather history database for the weather conditions in past years. The results will help you decide how hot, cold, wet, or windy it might be!

Date:

Astronomy

Jul. 15, 2013 Rise Set
Actual Time 5:37 AM PDT 8:57 PM PDT
Civil Twilight 5:01 AM PDT 9:33 PM PDT
Nautical Twilight 4:13 AM PDT 10:20 PM PDT
Astronomical Twilight 3:13 AM PDT 11:20 PM PDT
Moon 1:28 PM PDT (7/15) No Moon Set
Length of Visible Light 16h 32m
Length of Day
15h 19m
Waxing Crescent, 46% of the Moon is Illuminated
Jul 15
Waxing Crescent
Jul 15
First Quarter
Jul 22
Full
Jul 29
Last Quarter
Aug 6
New

Hourly Weather History & Observations

Time (PDT) Temp. Dew Point Humidity Pressure Visibility Wind Dir Wind Speed Gust Speed Precip Events Conditions
12:53 AM 60.1 °F 42.1 °F 51% 30.01 in 10.0 mi WNW 10.4 mph - N/A   Clear
1:53 AM 57.0 °F 45.0 °F 64% 30.01 in 10.0 mi NW 5.8 mph - N/A   Clear
2:53 AM 55.9 °F 46.9 °F 72% 30.01 in 10.0 mi WNW 4.6 mph - N/A   Clear
3:53 AM 51.1 °F 45.0 °F 80% 30.00 in 10.0 mi NNW 3.5 mph - N/A   Clear
4:53 AM 50.0 °F 44.1 °F 80% 30.00 in 10.0 mi Calm Calm - N/A   Clear
5:53 AM 48.9 °F 44.1 °F 83% 30.01 in 10.0 mi NW 3.5 mph - N/A   Clear
6:53 AM 54.0 °F 46.0 °F 75% 30.01 in 10.0 mi Calm Calm - N/A   Clear
7:53 AM 59.0 °F 48.0 °F 67% 30.01 in 10.0 mi Calm Calm - N/A   Clear
8:53 AM 63.0 °F 48.0 °F 58% 30.00 in 10.0 mi Calm Calm - N/A   Clear
9:53 AM 66.9 °F 48.9 °F 52% 29.99 in 10.0 mi Variable 3.5 mph - N/A   Clear
10:53 AM 72.0 °F 50.0 °F 46% 29.97 in 10.0 mi Variable 4.6 mph - N/A   Clear
11:53 AM 77.0 °F 50.0 °F 39% 29.94 in 10.0 mi North 8.1 mph - N/A   Clear
12:53 PM 80.1 °F 51.1 °F 36% 29.92 in 10.0 mi NE 10.4 mph - N/A   Clear
1:53 PM 81.0 °F 50.0 °F 34% 29.91 in 10.0 mi NE 10.4 mph - N/A   Clear
2:53 PM 84.9 °F 48.0 °F 28% 29.88 in 10.0 mi Variable 4.6 mph - N/A   Clear
3:53 PM 84.9 °F 46.9 °F 27% 29.86 in 10.0 mi NNE 8.1 mph - N/A   Clear
4:53 PM 86.0 °F 48.0 °F 27% 29.83 in 10.0 mi NNW 12.7 mph - N/A   Clear
5:53 PM 86.0 °F 50.0 °F 29% 29.81 in 10.0 mi North 10.4 mph - N/A   Clear
6:53 PM 82.9 °F 46.9 °F 28% 29.81 in 10.0 mi North 12.7 mph - N/A   Clear
7:53 PM 80.1 °F 44.1 °F 28% 29.80 in 10.0 mi NNW 11.5 mph - N/A   Clear
8:53 PM 73.0 °F 46.0 °F 38% 29.81 in 10.0 mi WNW 6.9 mph - N/A   Clear
9:53 PM 69.1 °F 43.0 °F 39% 29.82 in 10.0 mi NW 4.6 mph - N/A   Clear
10:53 PM 66.9 °F 43.0 °F 42% 29.81 in 10.0 mi WNW 6.9 mph - N/A   Clear
11:53 PM 68.0 °F 46.0 °F 45% 29.81 in 10.0 mi WNW 8.1 mph - N/A   Clear